JA1KWV-11 Weather Reports


time (UTC)temp
C
wind
direction
speed
KPH
gust
KPH
rain 1hr
cm
rain 24hr
cm
rain mn
cm
humidity
%
barometer
mb
20260510000827 25 267 0.0 0.0 0.00 0.00 0.00 52 1021.0
20260510000027 25 267 0.0 0.0 0.00 0.00 0.00 55 1021.0
20260509235227 25 267 0.0 0.0 0.00 0.00 0.00 56 1021.0
20260509234427 25 267 0.0 0.0 0.00 0.00 0.00 56 1020.9
20260509233627 25 267 0.0 0.0 0.00 0.00 0.00 57 1021.1
20260509232826 25 267 0.0 0.0 0.00 0.00 0.00 58 1021.0
20260509232026 25 267 0.0 0.0 0.00 0.00 0.00 61 1020.8
20260509231226 25 267 0.0 0.0 0.00 0.00 0.00 62 1020.8
20260509230426 25 267 0.0 0.0 0.00 0.00 0.00 62 1020.7
20260509225625 25 267 0.0 0.0 0.00 0.00 0.00 62 1020.7
20260509224825 25 267 0.0 0.0 0.00 0.00 0.00 63 1020.9
20260509224025 25 267 0.0 0.0 0.00 0.00 0.00 62 1020.7
20260509223225 25 267 0.0 0.0 0.00 0.00 0.00 62 1020.8
20260509222425 25 267 0.0 0.0 0.00 0.00 0.00 62 1021.0
20260509221624 24 267 0.0 0.0 0.00 0.00 0.00 62 1020.6
20260509220824 24 267 0.0 0.0 0.00 0.00 0.00 61 1020.6
20260509220024 24 267 0.0 0.0 0.00 0.00 0.00 61 1020.6
20260509215224 24 267 0.0 0.0 0.00 0.00 0.00 62 1020.6
20260509214424 24 267 0.0 0.0 0.00 0.00 0.00 62 1020.3
20260509213623 24 267 0.0 0.0 0.00 0.00 0.00 61 1020.3
20260509212823 24 267 0.0 0.0 0.00 0.00 0.00 60 1020.4
20260509212023 24 267 0.0 0.0 0.00 0.00 0.00 61 1020.2
20260509211223 24 267 0.0 0.0 0.00 0.00 0.00 60 1020.0
20260509210422 24 267 0.0 0.0 0.00 0.00 0.00 60 1020.0
20260509205622 24 267 0.0 0.0 0.00 0.00 0.00 61 1020.0
20260509204822 24 267 0.0 0.0 0.00 0.00 0.00 58 1019.8
20260509204022 24 267 0.0 0.0 0.00 0.00 0.00 59 1019.8
20260509203221 24 267 0.0 0.0 0.00 0.00 0.00 59 1019.8
20260509202421 24 267 0.0 0.0 0.00 0.00 0.00 59 1019.5
20260509201621 24 267 0.0 0.0 0.00 0.00 0.00 59 1019.5
20260509200821 24 267 0.0 0.0 0.00 0.00 0.00 59 1019.5
20260509200021 24 267 0.0 0.0 0.00 0.00 0.00 59 1019.3
20260509195220 24 267 0.0 0.0 0.00 0.00 0.00 58 1019.2
20260509194420 24 267 0.0 0.0 0.00 0.00 0.00 59 1019.2
20260509193620 24 267 0.0 0.0 0.00 0.00 0.00 58 1019.1
20260509192820 24 267 0.0 0.0 0.00 0.00 0.00 58 1019.3
20260509192020 24 267 0.0 0.0 0.00 0.00 0.00 58 1018.9
20260509191219 24 267 0.0 0.0 0.00 0.00 0.00 59 1018.8
20260509190419 24 267 0.0 0.0 0.00 0.00 0.00 58 1018.6
20260509185619 24 267 0.0 0.0 0.00 0.00 0.00 58 1018.8
20260509184819 24 267 0.0 0.0 0.00 0.00 0.00 59 1018.4
20260509184018 24 267 0.0 0.0 0.00 0.00 0.00 58 1018.5
20260509183218 24 267 0.0 0.0 0.00 0.00 0.00 57 1018.3
20260509182418 24 267 0.0 0.0 0.00 0.00 0.00 57 1018.2
20260509181618 24 267 0.0 0.0 0.00 0.00 0.00 57 1018.2
20260509180818 24 267 0.0 0.0 0.00 0.00 0.00 56 1017.9
20260509180017 24 267 0.0 0.0 0.00 0.00 0.00 57 1018.0
20260509175217 24 267 0.0 0.0 0.00 0.00 0.00 57 1018.0
20260509174417 24 267 0.0 0.0 0.00 0.00 0.00 56 1017.9
20260509173617 24 267 0.0 0.0 0.00 0.00 0.00 56 1017.9
20260509172817 24 267 0.0 0.0 0.00 0.00 0.00 56 1017.9
20260509172016 24 267 0.0 0.0 0.00 0.00 0.00 56 1017.6
20260509171216 25 267 0.0 0.0 0.00 0.00 0.00 57 1017.8
20260509170416 25 267 0.0 0.0 0.00 0.00 0.00 57 1017.8
20260509165615 25 267 0.0 0.0 0.00 0.00 0.00 56 1017.9
20260509164815 25 267 0.0 0.0 0.00 0.00 0.00 56 1017.7
20260509164015 24 267 0.0 0.0 0.00 0.00 0.00 56 1017.6
20260509163215 25 267 0.0 0.0 0.00 0.00 0.00 56 1017.8
20260509162415 24 267 0.0 0.0 0.00 0.00 0.00 55 1017.6
20260509161614 25 267 0.0 0.0 0.00 0.00 0.00 54 1017.7
20260509160814 24 267 0.0 0.0 0.00 0.00 0.00 54 1017.3
20260509160014 25 267 0.0 0.0 0.00 0.00 0.00 54 1017.3
20260509155214 25 267 0.0 0.0 0.00 0.00 0.00 52 1017.4
20260509154414 25 267 0.0 0.0 0.00 0.00 0.00 54 1017.1
20260509153613 25 267 0.0 0.0 0.00 0.00 0.00 54 1017.2
20260509152813 25 267 0.0 0.0 0.00 0.00 0.00 53 1017.2
20260509152013 25 267 0.0 0.0 0.00 0.00 0.00 54 1017.1
20260509151213 25 267 0.0 0.0 0.00 0.00 0.00 54 1017.4
20260509150412 25 267 0.0 0.0 0.00 0.00 0.00 53 1017.3
20260509145612 25 267 0.0 0.0 0.00 0.00 0.00 53 1017.5
20260509144812 25 267 0.0 0.0 0.00 0.00 0.00 53 1017.3
20260509144012 25 267 0.0 0.0 0.00 0.00 0.00 52 1017.3
20260509143212 25 267 0.0 0.0 0.00 0.00 0.00 53 1017.1
20260509142411 25 267 0.0 0.0 0.00 0.00 0.00 54 1017.0
20260509141611 25 267 0.0 0.0 0.00 0.00 0.00 54 1017.1
20260509140811 25 267 0.0 0.0 0.00 0.00 0.00 54 1017.0
20260509140011 25 267 0.0 0.0 0.00 0.00 0.00 53 1016.8
20260509135210 25 267 0.0 0.0 0.00 0.00 0.00 53 1016.9
20260509134410 25 267 0.0 0.0 0.00 0.00 0.00 53 1016.7
20260509133610 25 267 0.0 0.0 0.00 0.00 0.00 53 1016.7
20260509132810 25 267 0.0 0.0 0.00 0.00 0.00 54 1016.2
20260509132010 25 267 0.0 0.0 0.00 0.00 0.00 53 1016.4
20260509131209 25 267 0.0 0.0 0.00 0.00 0.00 53 1016.5
20260509130409 25 267 0.0 0.0 0.00 0.00 0.00 54 1016.4
20260509125609 25 267 0.0 0.0 0.00 0.00 0.00 52 1016.4
20260509124809 25 267 0.0 0.0 0.00 0.00 0.00 53 1016.2
20260509124008 25 267 0.0 0.0 0.00 0.00 0.00 53 1016.2
20260509123208 25 267 0.0 0.0 0.00 0.00 0.00 53 1016.1
20260509122408 25 267 0.0 0.0 0.00 0.00 0.00 54 1016.1
20260509121608 25 267 0.0 0.0 0.00 0.00 0.00 53 1016.0
20260509120808 25 267 0.0 0.0 0.00 0.00 0.00 53 1016.1
20260509120007 25 267 0.0 0.0 0.00 0.00 0.00 53 1015.8
20260509115207 25 267 0.0 0.0 0.00 0.00 0.00 54 1016.0
20260509114407 25 267 0.0 0.0 0.00 0.00 0.00 54 1015.7
20260509113607 25 267 0.0 0.0 0.00 0.00 0.00 55 1015.8
20260509112807 25 267 0.0 0.0 0.00 0.00 0.00 54 1015.4
20260509112006 25 267 0.0 0.0 0.00 0.00 0.00 54 1015.4
20260509111206 25 267 0.0 0.0 0.00 0.00 0.00 55 1015.6
20260509110406 25 267 0.0 0.0 0.00 0.00 0.00 55 1015.2
20260509105606 25 267 0.0 0.0 0.00 0.00 0.00 55 1015.2
20260509104805 25 267 0.0 0.0 0.00 0.00 0.00 56 1015.0
20260509104005 25 267 0.0 0.0 0.00 0.00 0.00 55 1014.9
20260509103205 25 267 0.0 0.0 0.00 0.00 0.00 56 1014.5
20260509102405 25 267 0.0 0.0 0.00 0.00 0.00 57 1014.5
20260509101605 25 267 0.0 0.0 0.00 0.00 0.00 57 1014.3
20260509100804 25 267 0.0 0.0 0.00 0.00 0.00 56 1014.4
20260509100005 25 267 0.0 0.0 0.00 0.00 0.00 56 1014.2
20260509095204 25 267 0.0 0.0 0.00 0.00 0.00 57 1014.1
20260509094404 25 267 0.0 0.0 0.00 0.00 0.00 56 1014.0
20260509093604 25 267 0.0 0.0 0.00 0.00 0.00 56 1014.0
20260509092803 25 267 0.0 0.0 0.00 0.00 0.00 56 1013.7
20260509092003 25 267 0.0 0.0 0.00 0.00 0.00 57 1013.8
20260509091203 25 267 0.0 0.0 0.00 0.00 0.00 57 1013.4
20260509090403 25 267 0.0 0.0 0.00 0.00 0.00 58 1013.3
20260509085602 25 267 0.0 0.0 0.00 0.00 0.00 56 1013.4
20260509084802 25 267 0.0 0.0 0.00 0.00 0.00 56 1013.2
20260509084002 25 267 0.0 0.0 0.00 0.00 0.00 57 1013.0
20260509083202 25 267 0.0 0.0 0.00 0.00 0.00 56 1012.9
20260509082402 25 267 0.0 0.0 0.00 0.00 0.00 54 1012.6
20260509081601 25 267 0.0 0.0 0.00 0.00 0.00 55 1012.7
20260509080801 25 267 0.0 0.0 0.00 0.00 0.00 55 1012.7
20260509080001 25 267 0.0 0.0 0.00 0.00 0.00 53 1012.3
20260509075201 25 267 0.0 0.0 0.00 0.00 0.00 55 1012.1
20260509074400 25 267 0.0 0.0 0.00 0.00 0.00 56 1011.9
20260509073600 25 267 0.0 0.0 0.00 0.00 0.00 56 1011.9
20260509072800 25 267 0.0 0.0 0.00 0.00 0.00 58 1011.6
20260509072000 25 267 0.0 0.0 0.00 0.00 0.00 57 1011.5
20260509071200 25 267 0.0 0.0 0.00 0.00 0.00 59 1011.5
20260509070359 25 267 0.0 0.0 0.00 0.00 0.00 59 1011.2
20260509065559 25 267 0.0 0.0 0.00 0.00 0.00 59 1011.3
20260509064759 25 267 0.0 0.0 0.00 0.00 0.00 60 1010.8
20260509063959 25 267 0.0 0.0 0.00 0.00 0.00 59 1011.0
20260509063158 25 267 0.0 0.0 0.00 0.00 0.00 59 1010.8
20260509062358 25 267 0.0 0.0 0.00 0.00 0.00 59 1011.0
20260509061558 25 267 0.0 0.0 0.00 0.00 0.00 58 1011.0
20260509060758 25 267 0.0 0.0 0.00 0.00 0.00 59 1010.6
20260509055958 25 267 0.0 0.0 0.00 0.00 0.00 59 1010.5
20260509055157 25 267 0.0 0.0 0.00 0.00 0.00 58 1010.6
20260509054357 25 267 0.0 0.0 0.00 0.00 0.00 59 1010.6
20260509053557 25 267 0.0 0.0 0.00 0.00 0.00 59 1010.6
20260509052757 25 267 0.0 0.0 0.00 0.00 0.00 58 1010.5
20260509051956 25 267 0.0 0.0 0.00 0.00 0.00 59 1010.7
20260509051156 25 267 0.0 0.0 0.00 0.00 0.00 59 1010.5
20260509050356 25 267 0.0 0.0 0.00 0.00 0.00 58 1010.6
20260509045556 25 267 0.0 0.0 0.00 0.00 0.00 58 1010.4
20260509044756 25 267 0.0 0.0 0.00 0.00 0.00 58 1010.6
20260509043955 25 267 0.0 0.0 0.00 0.00 0.00 59 1010.6
20260509043155 25 267 0.0 0.0 0.00 0.00 0.00 58 1010.8
20260509042355 25 267 0.0 0.0 0.00 0.00 0.00 58 1010.6
20260509041555 25 267 0.0 0.0 0.00 0.00 0.00 58 1010.9
20260509040755 25 267 0.0 0.0 0.00 0.00 0.00 58 1010.8
20260509035954 25 267 0.0 0.0 0.00 0.00 0.00 57 1010.9
20260509035154 25 267 0.0 0.0 0.00 0.00 0.00 58 1010.7
20260509034354 25 267 0.0 0.0 0.00 0.00 0.00 58 1010.3
20260509033554 25 267 0.0 0.0 0.00 0.00 0.00 57 1010.5
20260509032753 25 267 0.0 0.0 0.00 0.00 0.00 57 1010.6
20260509031953 25 267 0.0 0.0 0.00 0.00 0.00 58 1010.5
20260509031153 25 267 0.0 0.0 0.00 0.00 0.00 58 1010.8
20260509030353 25 267 0.0 0.0 0.00 0.00 0.00 58 1010.7
20260509025552 25 267 0.0 0.0 0.00 0.00 0.00 58 1010.4
20260509024752 25 267 0.0 0.0 0.00 0.00 0.00 58 1010.3
20260509023952 25 267 0.0 0.0 0.00 0.00 0.00 58 1010.7
20260509023152 25 267 0.0 0.0 0.00 0.00 0.00 58 1010.7
20260509022352 25 267 0.0 0.0 0.00 0.00 0.00 59 1010.6
20260509021551 25 267 0.0 0.0 0.00 0.00 0.00 58 1010.6
20260509020751 25 267 0.0 0.0 0.00 0.00 0.00 59 1010.5
20260509015951 25 267 0.0 0.0 0.00 0.00 0.00 59 1010.4
20260509015151 25 267 0.0 0.0 0.00 0.00 0.00 59 1010.4
20260509014350 25 267 0.0 0.0 0.00 0.00 0.00 58 1010.5
20260509013550 25 267 0.0 0.0 0.00 0.00 0.00 58 1010.3
20260509012750 25 267 0.0 0.0 0.00 0.00 0.00 58 1010.6
20260509011950 25 267 0.0 0.0 0.00 0.00 0.00 59 1010.6
20260509011150 25 267 0.0 0.0 0.00 0.00 0.00 59 1010.5
20260509010349 25 267 0.0 0.0 0.00 0.00 0.00 58 1010.6
20260509005549 25 267 0.0 0.0 0.00 0.00 0.00 59 1009.7
20260509004749 25 267 0.0 0.0 0.00 0.00 0.00 59 1009.8
20260509003949 25 267 0.0 0.0 0.00 0.00 0.00 60 1009.8
20260509003149 25 267 0.0 0.0 0.00 0.00 0.00 62 1010.1
20260509002348 26 267 0.0 0.0 0.00 0.00 0.00 62 1010.1
20260509001548 26 267 0.0 0.0 0.00 0.00 0.00 63 1009.8